User: anonymous   Login
Location: Amsterdam
(30.7274°N, 84.4357°W)
Time: 23:16:11
(UTC+00:00)
Language:

SRMSAT - Orbit

View from above orbital plane
View from above orbital plane
View from above satellite
View from above satellite

Ground track
Ground track

The orbit is defined by the following mean orbital elements,

1 37841U          26073.63607541 +.00000000 +00000-0 +11273-3 0 00003
2 37841  19.9716 271.7666 0011723 243.5427 173.7413 14.11549824    09
Epoch (UTC): 14 March 2026 15:15:56
Eccentricity: 0.0011723
inclination: 19.9716°
perigee height: 846 km
apogee height: 863 km
right ascension of ascending node: 271.7666°
argument of perigee: 243.5427°
revolutions per day: 14.11549824
mean anomaly at epoch: 173.7413°

The dashed part of the orbit path shows where the satellite is in the earth's shadow,  

DLR